Regional Weather Roundup
Issued by NWS

Home | Current Version | Previous Version | Text Only | Print | Product List | Glossary On
Versions: 1 2 3 4 5 6 7 8 9 10 11 12 13 14 15 16 17 18 19 20 21 22 23 24 25 26 27
000
ASUS45 KBOU 221810
RWRCO

WEATHER ROUNDUP FOR COLORADO
NATIONAL WEATHER SERVICE DENVER/BOULDER CO
1100 AM MST MON JAN 22 2018

NOTE: "FAIR" INDICATES FEW OR NO CLOUDS BELOW 12000 FEET WITH NO
SIGNIFICANT WEATHER AND/OR OBSTRUCTIONS TO VISIBILITY.

COZ001>005-013-030-031-221900-
...NORTHWEST COLORADO...

CITY           SKY/WX    TMP DP  RH WIND       PRES   REMARKS
CRAIG          FAIR       7   2  80 SW5       30.29S WCI  -2
HAYDEN         FAIR     N/A N/A N/A SE8       30.27F
MEEKER         FAIR       8   4  83 CALM      30.27F
RABBIT EARS PA MOCLDY   N/A N/A N/A W14G22    30.08S
STEAMBOAT SPGS FAIR      11   6  79 CALM      30.26S
WALDEN         FAIR      16   5  62 S9        30.16S WCI   4
$$

COZ006>008-011-221900-
...WEST CENTRAL VALLEYS...

CITY           SKY/WX    TMP DP  RH WIND       PRES   REMARKS
GRAND JUNCTION FAIR      22  16  78 E5        30.34F WCI  16
MONTROSE       FAIR      23  11  60 CALM      30.35F
EAGLE          FAIR      27   9  46 CALM      30.30F
RIFLE          FAIR      22  13  68 CALM      30.33F
DELTA          FAIR      28  13  53 E3        30.35F
NUCLA          FAIR      21  10  63 SW3       30.34F
$$

COZ017>023-064>068-221900-
...SOUTHWEST COLORADO...

CITY           SKY/WX    TMP DP  RH WIND       PRES   REMARKS
DURANGO        FAIR      19  13  77 NE5       30.24S WCI  12
CORTEZ         FAIR      27  11  51 E7        30.27F WCI  19
PAGOSA SPRINGS FAIR     N/A N/A N/A S6        30.21R
TELLURIDE      FAIR      17   4  58 CALM      30.21S
WOLF CREEK PAS FAIR      12 -13  31 N12       30.14S WCI  -2
$$

COZ009-010-012-014-032>034-037-058>063-221900-
...CENTRAL COLORADO...

CITY           SKY/WX    TMP DP  RH WIND       PRES   REMARKS
ASPEN          FAIR      19   4  51 CALM      30.21S
BUENA VISTA    FAIR      24  -1  34 N8        30.13S WCI  15
COPPER MTN     NOT AVBL
BERTHOUD PASS  CLOUDY    -4 -15  59 NW18G26   29.99R WCI -26
COTTONWOOD PAS   N/A     25   0  33 W10G18    30.08S WCI  15
GUNNISON       FAIR      14   3  61 NE5       30.26S WCI   6
KREMMLING      FAIR      18   5  57 E3        30.26R
LEADVILLE      FAIR      14   0  53 N13       30.09S WCI   0
MONARCH PASS     N/A      3   0  85 SW15G21   30.17F WCI -15
SALIDA         FAIR      22   6  50 CALM      30.23F
SUNLIGHT       FAIR     N/A N/A N/A MISG      30.17S
WILKERSON PASS FAIR      14  -6  41 N10G25    30.04R WCI   1
$$

COZ069>075-221900-
...SAN LUIS VALLEY/SANGRE DE CRISTO MOUNTAINS...

CITY           SKY/WX    TMP DP  RH WIND       PRES   REMARKS
ALAMOSA        FAIR      20   4  50 E7        30.19S WCI  11
DEL NORTE      FAIR      28  -2  27 W7        30.15F WCI  21
LA VETA PASS   LGT SNOW  14   5  67 SW25G31     N/A  WCI  -5
SAGUACHE       FAIR      27   5  39 NW17G24   30.17S WCI  14
$$

COZ035-036-038>040-221900-
...NORTHERN COLORADO FRONT RANGE...

CITY           SKY/WX    TMP DP  RH WIND       PRES   REMARKS
DENVER INTL AP FAIR      33  12  41 W12       30.01S WCI  24
DMNS CITY PARK NOT AVBL
AURORA         MOSUNNY   34  12  40 W13       30.02S WCI  25
FRONT RANGE AP SUNNY     32  18  55 SW10      30.01S WCI  24
ERIE MUNI ARPT FAIR      38  12  34 W7        30.07S
BOULDER MUN AP FAIR      39   9  28 W6        30.01F
CENTENNIAL     FAIR      34   9  35 W15       30.02R WCI  24
BROOMFIELD     MOSUNNY   34   9  35 W28       30.01R WCI  20
FORT COLLINS   FAIR      30  13  49 CALM      30.01S
LONGMONT       FAIR      46   9  21 S3        30.02F
$$

COZ041-046-047-076>085-087-088-221900-
...PIKES PEAK/PALMER DIVIDE AND SOUTHERN FOOTHILLS...

CITY           SKY/WX    TMP DP  RH WIND       PRES   REMARKS
COLO. SPRINGS  FAIR      38   4  24 NW15G31   30.00F
A. F. ACADEMY  FAIR      35   4  26 NW17G30   30.00S WCI  25
SCHRIEVER AFB  FAIR      35   6  29 N14G22    30.00F WCI  26
CHEYENNE MTN   FAIR      35  -8  16 N24G38    29.90F WCI  23
ELLICOTT         N/A    N/A N/A N/A N16       29.99S
FALCON         FAIR      35   2  24 NW17G28   30.00S WCI  24
FORT CARSON    FAIR      40   2  20 N26G36    29.98F
LIMON          FAIR      27  12  53 NW15      29.99S WCI  15
MONUMENT HILL  FAIR      28   9  43 NW13      30.01S WCI  18
CANON CITY     SUNNY     36  12  38 W16       30.06F
WALSENBURG     NOT AVBL
TRINIDAD       FAIR      38  10  31 NW17G23   30.06S
$$

COZ042>045-048>051-090-091-221900-
...NORTHEAST COLORADO...

CITY           SKY/WX    TMP DP  RH WIND       PRES   REMARKS
GREELEY ARPT   FAIR      29  15  56 S3        30.03S
AKRON          FAIR      27  15  61 N14       30.00R WCI  16
BURLINGTON     MIX PCPN  29  19  66 NW24      29.97R WCI  15
WRAY           FAIR      32  19  59 NW23G30   29.98R WCI  19
YUMA           FAIR      28  14  54 NW22G29   29.98S WCI  15
STERLING       FAIR      32  18  55 N20G26    30.00R WCI  20
HOLYOKE        FAIR      34  19  55 NW21G28   29.97R WCI  22
FORT MORGAN    FAIR      32  13  45 NW16      30.02F WCI  21
$$

COZ086-089-092>099-221900-
...SOUTHEAST COLORADO...

CITY           SKY/WX    TMP DP  RH WIND       PRES   REMARKS
PUEBLO         FAIR      41  11  29 W20G30    30.04F
LA JUNTA       FAIR      40  17  39 W8        30.06S
LAMAR          FAIR      35  18  49 NW17      30.04S WCI  25
SPRINGFIELD      N/A     33  16  49 NW20G35   30.01R WCI  21
$$




USA.gov is the U.S. government's official web portal to all federal, state and local government web resources and services.